Ballina Observation History
Time Wind Speed Temp Pressure Rel. Hum Rain
08/09:00am SSW 8-12 kts 21.1°c 1020.2 hPa 95% 38.8mm
08/08:30am SW 7-9 kts 20.0°c 1020.1 hPa 91% 38.8mm
08/08:00am SSW 7-11 kts 20.1°c 1019.7 hPa 95% 38.8mm
08/07:30am W 7-9 kts 18.7°c 1019.3 hPa 100% 38.8mm
08/07:00am WSW 6-7 kts 17.9°c 1018.9 hPa n/a 38.8mm
08/06:30am WSW 5-7 kts 17.2°c 1018.6 hPa n/a 38.8mm
08/06:00am WSW 7-9 kts 17.1°c 1018.5 hPa n/a 38.8mm
08/05:30am W 6-7 kts 17.0°c 1018.3 hPa n/a 38.8mm
08/05:00am W 5-6 kts 17.2°c 1017.9 hPa n/a 38.8mm
08/04:30am W 6-7 kts 17.0°c 1017.8 hPa n/a 38.8mm
08/04:00am SW 6-8 kts 17.2°c 1017.6 hPa n/a 38.8mm
08/03:30am WSW 7-8 kts 17.1°c 1017.1 hPa n/a 38.8mm
08/03:00am WSW 8-10 kts 17.6°c 1017.3 hPa 100% 38.8mm
08/02:30am SW 5-7 kts 17.7°c 1017.5 hPa n/a 38.8mm
08/02:00am WSW 6-8 kts 18.0°c 1017.8 hPa n/a 38.8mm
08/01:41am WSW 8-11 kts 17.9°c 1017.8 hPa n/a 38.8mm
08/01:30am WSW 9-11 kts 18.0°c 1018.1 hPa n/a 38.6mm
08/01:29am WSW 9-11 kts 18.0°c 1018.1 hPa n/a 38.6mm
08/01:00am WSW 9-11 kts 18.1°c 1018.3 hPa n/a 38.2mm
08/12:39am WSW 7-10 kts 18.0°c 1018.3 hPa n/a 38.2mm
08/12:30am WSW 9-13 kts 18.0°c 1018.2 hPa n/a 38.2mm
08/12:18am WSW 10-13 kts 18.1°c 1018.3 hPa n/a 37.2mm
08/12:14am WSW 10-14 kts 18.1°c 1018.2 hPa n/a 36.8mm
08/12:00am WSW 10-14 kts 18.3°c 1018.2 hPa 100% 36.6mm
Time Wind Speed Temp Pressure Rel. Hum Rain
07/11:50pm SW 8-13 kts 18.6°c 1018.2 hPa n/a 35.4mm
07/11:30pm WSW 10-13 kts 18.7°c 1018.2 hPa n/a 34.2mm
07/11:25pm W 9-13 kts 18.7°c 1018.2 hPa n/a 34.2mm
07/11:00pm SSW 8-13 kts 19.2°c 1018.6 hPa 100% 33.0mm
07/10:56pm SSW 8-13 kts 19.2°c 1018.7 hPa 100% 33.0mm
07/10:31pm SSW 12-17 kts 19.4°c 1018.6 hPa n/a 32.4mm
07/10:30pm SSW 12-17 kts 19.4°c 1018.6 hPa n/a 32.4mm
07/10:10pm SSW 9-13 kts 19.2°c 1018.8 hPa n/a 31.4mm
07/10:00pm SW 7-12 kts 19.2°c 1018.8 hPa n/a 30.4mm
07/09:56pm WSW 7-10 kts 19.0°c 1018.9 hPa n/a 30.2mm
07/09:52pm W 6-10 kts 18.8°c 1018.8 hPa n/a 29.8mm
07/09:32pm SSW 6-12 kts 18.9°c 1018.9 hPa n/a 29.2mm
07/09:30pm SW 8-12 kts 18.9°c 1018.9 hPa n/a 28.2mm
07/09:20pm WSW 7-12 kts 18.6°c 1018.7 hPa n/a 28.2mm
07/09:00pm WSW 10-15 kts 18.6°c 1018.8 hPa n/a 27.8mm
07/08:51pm WSW 11-15 kts 18.7°c 1018.7 hPa n/a 27.2mm
07/08:35pm SW 8-11 kts 18.8°c 1018.9 hPa n/a 25.8mm
07/08:30pm SW 8-11 kts 18.8°c 1019.0 hPa n/a 25.6mm
07/08:04pm SSW 13-18 kts 19.2°c 1018.4 hPa n/a 21.6mm
07/08:00pm SSW 12-19 kts 19.3°c 1018.4 hPa n/a 21.2mm
07/07:35pm SW 10-17 kts 19.1°c 1018.1 hPa n/a 21.0mm
07/07:30pm SW 9-15 kts 19.1°c 1018.1 hPa n/a 20.8mm
07/07:02pm SSW 13-19 kts 19.2°c 1017.8 hPa n/a 20.0mm
07/07:00pm SSW 13-19 kts 19.2°c 1017.8 hPa n/a 20.0mm
07/06:53pm SSW 10-15 kts 19.2°c 1017.7 hPa n/a 19.8mm
07/06:46pm SW 11-17 kts 19.2°c 1017.7 hPa n/a 19.6mm
07/06:30pm SW 11-15 kts 19.0°c 1017.6 hPa n/a 19.2mm
07/06:09pm SW 8-12 kts 19.1°c 1017.3 hPa n/a 12.0mm
07/06:00pm SSW 8-12 kts 19.1°c 1017.2 hPa n/a 9.0mm
07/05:31pm SSW 9-16 kts 19.4°c 1017.2 hPa n/a 5.4mm
07/05:30pm SSW 9-16 kts 19.4°c 1017.1 hPa n/a 4.8mm
07/05:22pm SSW 7-13 kts 19.3°c 1016.9 hPa n/a 4.6mm
07/05:00pm SSE 11-17 kts 19.3°c 1017.0 hPa n/a 4.2mm
07/04:50pm S 9-14 kts 19.5°c 1017.0 hPa n/a 3.6mm
07/04:32pm SSW 9-15 kts 19.4°c 1016.7 hPa n/a 3.0mm
07/04:30pm SSW 9-15 kts 19.4°c 1016.7 hPa n/a 3.0mm
07/04:12pm S 12-16 kts 19.5°c 1016.8 hPa n/a 2.6mm
07/04:01pm SSW 9-15 kts 20.1°c 1016.7 hPa 100% 1.6mm
07/04:00pm SSW 9-13 kts 20.1°c 1016.6 hPa 100% 1.4mm
07/03:54pm SW 9-13 kts 20.2°c 1016.6 hPa 100% 0.8mm
07/03:30pm SW 10-16 kts 20.2°c 1016.7 hPa n/a 0.8mm
07/03:20pm SW 9-13 kts 19.9°c 1016.7 hPa n/a 0.8mm
07/03:00pm SSW 11-17 kts 19.7°c 1016.7 hPa 100% 0.8mm
07/02:52pm SSW 12-18 kts 20.2°c 1016.8 hPa 92% 0.2mm
07/02:35pm SSW 12-18 kts 20.7°c 1016.9 hPa 90% 0.0mm
07/02:30pm SSW 11-17 kts 20.9°c 1016.8 hPa 89% 0.0mm
07/02:02pm S 15-25 kts 20.3°c 1017.0 hPa 88% 0.0mm
07/02:00pm S 15-25 kts 20.4°c 1017.0 hPa 88% 0.0mm
07/01:55pm S 13-25 kts 20.7°c 1017.0 hPa 84% 0.0mm
07/01:44pm SSW 8-13 kts 21.0°c 1016.9 hPa 88% 0.0mm
07/01:30pm SSW 12-19 kts 20.2°c 1017.0 hPa 88% 0.0mm
07/01:28pm SSW 12-19 kts 20.0°c 1017.1 hPa 87% 0.0mm
07/01:00pm SSW 11-16 kts 20.9°c 1017.4 hPa 85% 0.0mm
07/12:30pm S 16-25 kts 21.4°c 1017.8 hPa 86% 0.0mm
07/12:13pm S 18-29 kts 23.0°c 1017.8 hPa 73% 0.0mm
07/12:00pm S 18-26 kts 23.1°c 1018.1 hPa 69% 0.0mm
07/11:30am SSW 14-21 kts 24.1°c 1018.3 hPa 66% 0.0mm
07/11:00am S 17-23 kts 23.7°c 1018.5 hPa 73% 0.0mm
07/10:41am SSW 15-25 kts 23.4°c 1018.6 hPa 75% 0.0mm
07/10:30am SSW 14-21 kts 24.0°c 1018.5 hPa 74% 0.0mm
07/10:00am SSW 14-22 kts 23.0°c 1018.7 hPa 75% 0.0mm
07/09:30am SSW 12-19 kts 23.2°c 1018.8 hPa 72% 0.0mm
07/09:00am SW 12-20 kts 22.0°c 1018.9 hPa 79% 0.0mm
07/08:30am WSW 8-12 kts 20.5°c 1018.8 hPa 78% 0.0mm
07/08:00am SW 11-16 kts 20.8°c 1018.4 hPa 74% 0.0mm
07/07:30am SW 10-13 kts 20.5°c 1018.1 hPa 78% 0.0mm
07/07:00am SW 9-15 kts 19.3°c 1017.7 hPa 85% 0.0mm
07/06:30am WSW 8-10 kts 18.3°c 1017.4 hPa 88% 0.0mm
07/06:00am WSW 9-11 kts 17.7°c 1017.2 hPa 88% 0.0mm
07/05:30am WSW 7-10 kts 17.4°c 1016.9 hPa 90% 0.0mm
07/05:00am WSW 7 kts 16.7°c 1016.6 hPa 93% 0.0mm
07/04:30am WSW 6-7 kts 16.9°c 1016.4 hPa 91% 0.0mm
07/04:00am WSW 7-8 kts 17.0°c 1016.4 hPa 91% 0.0mm
07/03:30am WSW 7-9 kts 17.2°c 1016.3 hPa 87% 0.0mm
07/03:00am WSW 7-9 kts 18.2°c 1016.3 hPa 83% 0.0mm
07/02:30am WSW 7-9 kts 18.9°c 1016.4 hPa 81% 0.0mm
07/02:00am WSW 7-9 kts 19.4°c 1016.7 hPa 84% 0.0mm
07/01:30am WSW 5-8 kts 18.7°c 1016.9 hPa 88% 0.0mm
07/01:00am WSW 6-8 kts 18.6°c 1017.1 hPa 89% 0.0mm
07/12:30am WSW 6-8 kts 18.8°c 1017.3 hPa 86% 0.0mm
07/12:00am WSW 7-8 kts 19.1°c 1017.4 hPa 83% 0.0mm
Time Wind Speed Temp Pressure Rel. Hum Rain
06/11:30pm WSW 7-8 kts 18.5°c 1017.5 hPa 87% 0.0mm
06/11:00pm S 7-10 kts 21.3°c 1017.5 hPa 74% 0.0mm
06/10:30pm SSE 7-11 kts 21.5°c 1017.7 hPa 75% 0.0mm
06/10:00pm S 6-8 kts 21.3°c 1017.8 hPa 75% 0.0mm
06/09:30pm SSE 5-7 kts 21.1°c 1017.8 hPa 77% 0.0mm
06/09:00pm SE 5-7 kts 21.1°c 1017.7 hPa 78% 0.0mm
06/08:30pm SE 7-11 kts 21.7°c 1017.5 hPa 78% 0.0mm
06/08:00pm SE 8-11 kts 21.7°c 1017.2 hPa 80% 0.0mm
06/07:30pm SE 7-12 kts 21.7°c 1016.8 hPa 80% 0.0mm
06/07:00pm SE 7-10 kts 21.5°c 1016.5 hPa 82% 0.0mm
06/06:30pm SE 8-10 kts 21.6°c 1016.1 hPa 87% 0.0mm
06/06:00pm SSE 7-10 kts 21.7°c 1015.7 hPa 79% 0.0mm
06/05:30pm S 7-8 kts 22.1°c 1015.5 hPa 75% 0.0mm
06/05:00pm SSE 9-14 kts 22.8°c 1015.3 hPa 71% 0.0mm
06/04:30pm S 10-13 kts 23.6°c 1015.2 hPa 65% 0.0mm
06/04:00pm S 11-15 kts 23.8°c 1015.1 hPa 62% 0.0mm
06/03:30pm S 11-15 kts 24.0°c 1015.3 hPa 61% 0.0mm
06/03:00pm S 12-17 kts 24.0°c 1015.3 hPa 60% 0.0mm
06/02:30pm SSE 12-18 kts 24.1°c 1015.4 hPa 60% 0.0mm
06/02:00pm SSE 12-17 kts 24.4°c 1015.4 hPa 59% 0.0mm
06/01:30pm SSE 11-15 kts 24.9°c 1015.5 hPa 58% 0.0mm
06/01:00pm SSE 12-16 kts 25.1°c 1015.8 hPa 60% 0.0mm
06/12:30pm SSE 9-13 kts 24.8°c 1016.0 hPa 56% 0.0mm
06/12:00pm S 10-14 kts 24.4°c 1016.5 hPa 54% 0.0mm
06/11:30am SSW 7-11 kts 24.6°c 1016.9 hPa 59% 0.0mm
06/11:00am SSW 8-11 kts 24.1°c 1017.3 hPa 59% 0.0mm
06/10:30am S 7-11 kts 23.1°c 1017.4 hPa 59% 0.0mm
06/10:00am SW 7-11 kts 22.7°c 1017.8 hPa 56% 0.0mm
06/09:30am SW 8-11 kts 22.0°c 1017.8 hPa 64% 0.0mm
06/09:00am SW 8-10 kts 20.9°c 1017.9 hPa 67% 0.0mm
06/08:30am WSW 7-9 kts 20.2°c 1018.0 hPa 78% 0.0mm
06/08:00am WSW 7-8 kts 19.0°c 1017.7 hPa 89% 0.0mm
06/07:30am W 5-7 kts 17.7°c 1017.5 hPa 91% 0.0mm
06/07:00am SW 2-5 kts 15.9°c 1017.1 hPa 99% 0.0mm
06/06:30am SW 3 kts 13.9°c 1016.7 hPa 97% 0.0mm
06/06:00am CALM 0 kts 13.3°c 1016.4 hPa 97% 0.0mm
06/05:30am CALM 0 kts 13.3°c 1016.3 hPa 97% 0.0mm
06/05:28am CALM 0 kts 13.2°c 1016.2 hPa 97% 0.0mm
06/05:00am CALM 0 kts 12.7°c 1016.0 hPa 96% 0.0mm
06/04:30am CALM 0 kts 13.6°c 1015.6 hPa 97% 0.0mm
06/04:00am CALM 0 kts 13.6°c 1015.4 hPa 97% 0.0mm
06/03:57am CALM 0 kts 13.6°c 1015.4 hPa 97% 0.0mm
06/03:43am CALM 0 kts 13.9°c 1015.3 hPa 97% 0.0mm
06/03:30am SW 1-3 kts 13.6°c 1015.3 hPa 97% 0.0mm
06/03:21am CALM 0 kts 14.3°c 1015.3 hPa 98% 0.0mm
06/03:00am CALM 0 kts 14.4°c 1015.3 hPa 98% 0.0mm
06/02:30am SW 1-3 kts 14.6°c 1015.3 hPa 99% 0.0mm
06/02:19am SW 1-3 kts 14.5°c 1015.3 hPa 99% 0.0mm
06/02:00am CALM 0 kts 14.4°c 1015.3 hPa 98% 0.0mm
06/01:30am CALM 0 kts 14.0°c 1015.4 hPa 98% 0.0mm
06/01:16am CALM 0 kts 14.2°c 1015.5 hPa 98% 0.0mm
06/01:00am CALM 0 kts 14.6°c 1015.6 hPa 98% 0.0mm
06/12:57am CALM 0 kts 14.6°c 1015.7 hPa 98% 0.0mm
06/12:39am CALM 0 kts 14.6°c 1015.8 hPa 98% 0.0mm
06/12:30am CALM 0 kts 14.6°c 1015.8 hPa 98% 0.0mm
06/12:00am CALM 0 kts 15.1°c 1015.9 hPa 96% 0.0mm